Home   Weather   Corvallis   Past weeks

Flag for USA Past Weather in Corvallis, Oregon, USA — Yesterday and Last 2 Weeks

Now
54 °F

Overcast.


Feels Like: 53 °F
Forecast: 41 / 55 °F
Wind: 5 mph from Southwest

Location: Corvallis Municipal

Current Time: Apr 25, 2017 at 9:18:24 pm

Latest Report: Apr 25, 2017 at 8:35 pm


Visibility: 10 mi

Pressure: 29.86 "Hg

Humidity: 88%

Dew Point: 50 °F

Location of CorvallisLocation

Past Weather in Corvallis — Graph

°F

Corvallis Temperature Yesterday

Maximum temperature yesterday: 57 °F (at 1:55 pm)
Minimum temperature yesterday: 46 °F (at 12:15 am)
Average temperature yesterday: 50 °F

High & Low Weather Summary for the Past Weeks

 TemperatureHumidityPressure
High70 °F (Apr 21, 3:55 pm)94% (Apr 12, 12:55 am)30.43 "Hg (Apr 12, 12:55 am)
Low34 °F (Apr 15, 4:55 am)34% (Apr 15, 2:55 pm)29.64 "Hg (Apr 12, 12:15 am)
Average50 °F78%30.00 "Hg
* Reported Apr 10 8:35 pm — Apr 25 8:15 pm, Corvallis, Weather by CustomWeather, © 2017

Note: Actual official high and low records may vary slightly from our data, if they occured in-between our weather recording intervals... More about our weather records

Advertising

Corvallis Weather History for the Previous 24 Hours

Scroll right to see more
 ConditionsComfort  
Time TempWeatherWind HumidityBarometerVisibility
8:15 pm
Tue, Apr 25
54 °FOvercast.3 mph94%29.85 "Hg10 mi
7:55 pm54 °FMostly cloudy.6 mph94%29.85 "Hg10 mi
7:35 pm55 °FMostly cloudy.5 mph88%29.85 "Hg10 mi
7:15 pm54 °FMostly cloudy.6 mph94%29.85 "Hg10 mi
6:55 pm55 °FCloudy.5 mph88%29.85 "Hg10 mi
6:35 pm55 °FMostly cloudy.6 mph88%29.85 "Hg10 mi
5:55 pm54 °FMostly cloudy.7 mph94%29.84 "Hg10 mi
5:35 pm54 °FLow clouds.6 mph94%29.85 "Hg10 mi
5:15 pm54 °FMostly cloudy.7 mph88%29.85 "Hg10 mi
4:55 pm54 °FMostly cloudy.7 mph88%29.86 "Hg10 mi
4:35 pm54 °FMore clouds than sun.7 mph88%29.86 "Hg10 mi
4:15 pm54 °FMostly cloudy.8 mph88%29.86 "Hg9 mi
3:55 pm54 °FMostly cloudy.7 mph88%29.86 "Hg9 mi
3:35 pm54 °FCloudy.6 mph88%29.87 "Hg5 mi
3:15 pm54 °FMostly cloudy.6 mph82%29.88 "Hg9 mi
2:55 pm52 °FCloudy.5 mph88%29.88 "Hg5 mi
2:35 pm54 °FCloudy.5 mph82%29.90 "Hg7 mi
2:15 pm54 °FCloudy.5 mph82%29.91 "Hg9 mi
1:55 pm54 °FBroken clouds.6 mph82%29.91 "Hg8 mi
1:35 pm52 °FBroken clouds.5 mph88%29.92 "Hg10 mi
1:15 pm52 °FBroken clouds.3 mph82%29.92 "Hg10 mi
12:55 pm52 °FOvercast.5 mph82%29.93 "Hg10 mi
12:35 pm52 °FOvercast.3 mph82%29.95 "Hg9 mi
12:15 pm52 °FOvercast.3 mph82%29.94 "Hg9 mi
11:55 am52 °FOvercast.3 mph82%29.96 "Hg10 mi
11:35 am52 °FMore clouds than sun.3 mph77%29.96 "Hg10 mi
11:15 am52 °FMore clouds than sun.5 mph77%29.96 "Hg10 mi
10:55 am52 °FMostly cloudy.5 mph77%29.95 "Hg10 mi
10:35 am52 °FMostly cloudy.5 mph77%29.95 "Hg10 mi
9:55 am50 °FOvercast.3 mph82%29.95 "Hg10 mi
9:35 am50 °FOvercast.5 mph82%29.95 "Hg10 mi
9:15 am50 °FMostly cloudy.5 mph82%29.94 "Hg10 mi
8:55 am48 °FOvercast.3 mph87%29.97 "Hg10 mi
8:35 am48 °FMostly cloudy.3 mph87%30.00 "Hg10 mi
7:55 am46 °FOvercast.3 mph93%30.01 "Hg10 mi
7:35 am46 °FPartly sunny.5 mph87%30.03 "Hg10 mi
7:15 am46 °FScattered clouds.3 mph87%30.01 "Hg10 mi
6:55 am46 °FMore clouds than sun.3 mph87%30.02 "Hg10 mi
6:35 am46 °FCloudy.3 mph87%30.02 "Hg10 mi
6:15 am46 °FMostly cloudy.No wind87%30.02 "Hg7 mi
5:55 am46 °FMostly cloudy.3 mph87%30.01 "Hg10 mi
5:35 am46 °FMostly cloudy.No wind87%30.00 "Hg10 mi
5:15 am46 °FOvercast.No wind87%30.00 "Hg10 mi
4:55 am46 °FOvercast.No wind87%30.00 "Hg10 mi
4:35 am46 °FOvercast.3 mph87%30.01 "Hg10 mi
4:15 am46 °FOvercast.No wind87%30.02 "Hg10 mi
3:55 am45 °FOvercast.No wind93%30.03 "Hg10 mi
3:35 am45 °FOvercast.No wind93%30.03 "Hg10 mi
3:15 am45 °FOvercast.No wind87%30.03 "Hg10 mi
2:55 am45 °FPassing clouds.3 mph87%30.03 "Hg10 mi
2:35 am45 °FPassing clouds.5 mph87%30.03 "Hg10 mi
1:55 am45 °FClear.No wind81%30.03 "Hg10 mi
1:35 am45 °FPassing clouds.No wind93%30.03 "Hg10 mi
12:55 am46 °FOvercast.3 mph87%30.04 "Hg10 mi
12:15 am46 °FOvercast.No wind87%30.03 "Hg10 mi
11:55 pm
Mon, Apr 24
46 °FPassing clouds.No wind87%30.03 "Hg10 mi
11:35 pm48 °FOvercast.No wind82%30.03 "Hg10 mi
11:15 pm48 °FOvercast.No wind87%30.02 "Hg10 mi
10:55 pm48 °FMostly cloudy.No wind87%30.02 "Hg10 mi
10:35 pm48 °FMostly cloudy.No wind82%30.02 "Hg10 mi
10:15 pm48 °FMostly cloudy.No wind87%30.01 "Hg10 mi
9:55 pm48 °FMostly cloudy.No wind87%30.01 "Hg10 mi
9:35 pm48 °FMostly cloudy.No wind94%30.00 "Hg10 mi
Weather by CustomWeather, © 2017

See weather overviewHow to use our weather pages